Regional Weather Roundup
Issued by NWS

Home | Current Version | Previous Version | Text Only | Print | Product List | Glossary On
Versions: 1 2 3 4 5 6 7 8 9 10 11 12 13 14 15 16 17 18 19 20 21 22 23 24 25 26 27 28 29 30 31 32 33 34 35 36 37 38 39 40 41 42 43 44 45 46 47 48 49 50
000
ASUS43 KLOT 210008
RWRIL

ILLINOIS REGIONAL WEATHER ROUNDUP
NATIONAL WEATHER SERVICE CHICAGO/ROMEOVILLE IL
700 PM CDT FRI APR 20 2018

NOTE: "FAIR" INDICATES FEW OR NO CLOUDS BELOW 12,000 FEET WITH NO
SIGNIFICANT WEATHER AND/OR OBSTRUCTIONS TO VISIBILITY.

* THESE STATIONS ARE NOT UNDER NWS QUALITY CONTROL. THEY ALSO MAY NOT
  REPORT WEATHER SUCH AS PRECIPITATION OR FOG.

ILZ001-002-007-009-015-016-024-210100-
NORTHWEST ILLINOIS

CITY           SKY/WX    TMP DP  RH WIND       PRES   REMARKS
MOLINE         FAIR      59  19  21 SE7       30.37S
6HR MIN TEMP:  58; 6HR MAX TEMP:  63;

STERLING*      FAIR      57  23  26 MISG        N/A
SAVANNA*       FAIR      56  25  30 SE6       30.40S
$$

ILZ003-004-008-010-011-017-018-210100-
NORTH CENTRAL ILLINOIS

CITY           SKY/WX    TMP DP  RH WIND       PRES   REMARKS
ROCKFORD       MOCLDY    56  17  21 S3        30.41F
6HR MIN TEMP:  55; 6HR MAX TEMP:  61;

FREEPORT*      FAIR      54  25  32 CALM      30.42S
ROCHELLE*      FAIR      56  25  29 CALM      30.40F
DE KALB*       FAIR      55  22  28 E3        30.41S
PERU*          FAIR      60  24  25 E6        30.40S
$$

ILZ005-006-012>014-019>023-210100-
NORTHEAST ILLINOIS

CITY           SKY/WX    TMP DP  RH WIND       PRES   REMARKS
CHICAGO-OHARE  MOCLDY    53  11  18 E10       30.42S
6HR MIN TEMP:  53; 6HR MAX TEMP:  61;

CHICAGO-MIDWAY MOCLDY    53   8  16 E10       30.43F
6HR MIN TEMP:  53; 6HR MAX TEMP:  61;

AURORA         FAIR      58  16  19 CALM      30.40S
6HR MIN TEMP:  56; 6HR MAX TEMP:  61;

LANSING*       FAIR      51  20  28 E9        30.43F
JOLIET*        FAIR      56  18  22 E10       30.41S
WAUKEGAN       FAIR      46  17  31 SE5       30.43F
6HR MIN TEMP:  46; 6HR MAX TEMP:  53;

DUPAGE AIRPORT FAIR      54  16  22 E13       30.40S
6HR MIN TEMP:  54; 6HR MAX TEMP:  62;

KANKAKEE*      FAIR      55  18  23 NE15      30.41S
WHEELING       FAIR      53  10  18 E8        30.44F
6HR MIN TEMP:  53; 6HR MAX TEMP:  60;

MORRIS*        FAIR      58  20  22 CALM      30.39S
ROMEOVILLE*    FAIR      53  18  25 E10       30.41S
NORTHERLY ISL    N/A     43  28  56 E1          N/A
$$

LMZ740>746-210100-
SOUTHERN LAKE MICHIGAN

STATION/POSITION SKY/WX   TEMP    WIND        PRES    VSBY  WAVE
                          AIR SEA DIR/SP/G                  HT/PER
                          (F)     (DEG/KT/KT) (MB)    (MI)  (FT/S)
HARRISON CRIB              44     100/ 10/ 11   N/A
BURNHAM HARBOR             43     100/  3/  5   N/A
CALUMET HARBOR             44      90/  7/ 10 1029.9F
BURNS HARBOR               45      70/  6/  8 1031.5
MICHIGAN CITY              42      50/  7/  7   N/A
$$

ILZ025>027-034>036-040-047-049-050-058-095>099-210100-
WEST-CENTRAL ILLINOIS

CITY           SKY/WX    TMP DP  RH WIND       PRES   REMARKS
QUINCY         CLEAR     57  22  25 SE10      30.34F
GALESBURG*     FAIR      61  24  24 E5        30.39S
MACOMB*        MOCLDY    58  20  22 SE7       30.39S
JACKSONVILLE*  PTCLDY    58  21  23 SE9       30.37S
PITTSFIELD*    PTCLDY    59  22  24 E10G16    30.36S
$$

ILZ028>032-037-038-041>044-048-051>054-059>061-210100-
CENTRAL ILLINOIS

CITY           SKY/WX    TMP DP  RH WIND       PRES   REMARKS
PONTIAC        FAIR      58  26  28 E7        30.40F
BLOOMINGTON    FAIR      55  24  30 E10       30.39F
DECATUR        FAIR      56  23  27 E12       30.38S
PEORIA         FAIR      59  22  24 SE7       30.38S
6HR MIN TEMP:  57; 6HR MAX TEMP:  62;

LACON*         FAIR      58  21  24 E7        30.38S
LINCOLN*       FAIR      58  26  29 E8        30.38S
SPRINGFIELD    FAIR      60  24  25 SE12      30.37F
6HR MIN TEMP:  60; 6HR MAX TEMP:  65;

TAYLORVILLE    FAIR      58  21  23 E8        30.37F
6HR MIN TEMP:  58; 6HR MAX TEMP:  62;

$$

ILZ033-039-045-046-055>057-062-063-210100-
EAST-CENTRAL ILLINOIS

CITY           SKY/WX    TMP DP  RH WIND       PRES   REMARKS
CHAMPAIGN      FAIR      57  20  23 E10       30.39F
DANVILLE*      FAIR      57  24  27 NE7       30.37F
RANTOUL*       FAIR      60  22  23 E7        30.39S
MATTOON        FAIR      57  20  23 E9        30.36F
PARIS*         FAIR      57  32  39 NE7       30.39F
$$

ILZ079-100>102-210100-
SOUTHWEST ILLINOIS

CITY           SKY/WX    TMP DP  RH WIND       PRES   REMARKS
ALTON          PTCLDY    59  28  31 E10       30.35F
BELLEVILLE     PTCLDY    60  25  26 E7        30.34F
CAHOKIA*       CLOUDY    58  23  26 E13       30.34F
SPARTA*        CLOUDY    58  32  38 E10       30.35F
$$

ILZ064>066-069>071-074>076-080>082-084>086-088>090-092>094-210100-
SOUTH-CENTRAL ILLINOIS

CITY           SKY/WX    TMP DP  RH WIND       PRES   REMARKS
CARBONDALE     FAIR      59  30  33 E9        30.34F
6HR MIN TEMP:  59; 6HR MAX TEMP:  63;

CAIRO*         FAIR      61  31  32 NE9       30.31F
EFFINGHAM*     FAIR      59  28  31 E6        30.38F
MARION         MOCLDY    59  23  25 E8        30.35F
MT. VERNON       N/A     55  29  36 E7        30.36F
CENTRALIA*     PTCLDY    60  29  30 E8        30.35F
SALEM*         FAIR      60  21  21 CALM      30.36F
METROPOLIS*    FAIR      62  28  27 NE6       30.33F
$$

ILZ067-068-072-073-078-083-087-091-210100-
SOUTHEAST ILLINOIS

CITY           SKY/WX    TMP DP  RH WIND       PRES   REMARKS
LAWRENCEVILLE  FAIR      61  21  21 NE7       30.38F
FLORA*         FAIR      61  21  21 E5        30.37F
FAIRFIELD*     FAIR      59  25  26 E7        30.35F
HARRISBURG*    FAIR      58  36  44 CALM      30.35F
ROBINSON*      FAIR      55  26  33 NE8       30.39F
CARMI*         FAIR      58  33  40 NE7       30.35F
$$

ABBREVIATIONS USED IN REMARKS
   TC - TEMPERATURE IN CELSIUS
  WCI - WIND CHILL INDEX
   HX - HEAT INDEX
  VSB - VISIBILITY
$$





USA.gov is the U.S. government's official web portal to all federal, state and local government web resources and services.